FW6744 Weather Reports


time (UTC)temp
C
wind
direction
speed
KPH
gust
KPH
rain 1hr
cm
rain 24hr
cm
rain mn
cm
humidity
%
barometer
mb
20260904163807 34 214 1.6 6.4 0.00 0.00 0.00 61 1010.0
20260904163301 34 32 0.0 6.4 0.00 0.00 0.00 63 1010.0
20260904163235 33 149 1.6 6.4 0.00 0.00 0.00 62 1010.2
20260904162740 33 211 1.6 6.4 0.00 0.00 0.00 64 1010.2
20260904161751 33 27 1.6 6.4 0.00 0.00 0.00 63 1010.2
20260904161251 33 40 1.6 6.4 0.00 0.00 0.00 63 1010.2
20260904160747 32 48 0.0 6.4 0.00 0.00 0.00 63 1010.3
20260904160248 33 145 1.6 4.8 0.00 0.00 0.00 63 1010.2
20260904155746 32 31 1.6 6.4 0.00 0.00 0.00 64 1010.4
20260904155247 32 45 1.6 6.4 0.00 0.00 0.00 63 1010.5
20260904154746 32 151 0.0 4.8 0.00 0.00 0.00 65 1010.6
20260904154246 32 46 1.6 6.4 0.00 0.00 0.00 66 1010.6
20260904153744 32 229 1.6 6.4 0.00 0.00 0.00 64 1010.5
20260904153243 32 36 1.6 6.4 0.00 0.00 0.00 66 1010.5
20260904152743 32 125 1.6 6.4 0.00 0.00 0.00 67 1010.4
20260904152248 32 27 1.6 6.4 0.00 0.00 0.00 67 1010.4
20260904151745 32 215 0.0 4.8 0.00 0.00 0.00 67 1010.4
20260904151241 32 39 1.6 6.4 0.00 0.00 0.00 69 1010.5
20260904150739 31 39 1.6 6.4 0.00 0.00 0.00 68 1010.4
20260904150241 31 163 0.0 3.2 0.00 0.00 0.00 70 1010.4
20260904145741 31 173 0.0 3.2 0.00 0.00 0.00 70 1010.4
20260904145239 31 70 0.0 3.2 0.00 0.00 0.00 70 1010.4
20260904144739 31 131 1.6 4.8 0.00 0.00 0.00 72 1010.4
20260904144503 31 39 1.6 6.4 0.00 0.00 0.00 72 1010.3
20260904143740 30 184 1.6 6.4 0.00 0.00 0.00 72 1010.3
20260904143241 30 215 0.0 4.8 0.00 0.00 0.00 73 1010.3
20260904142739 30 33 0.0 4.8 0.00 0.00 0.00 73 1010.3
20260904142241 30 140 0.0 4.8 0.00 0.00 0.00 73 1010.3
20260904141741 30 67 0.0 4.8 0.00 0.00 0.00 74 1010.3
20260904141240 30 23 0.0 4.8 0.00 0.00 0.00 76 1010.2
20260904140739 30 88 0.0 4.8 0.00 0.00 0.00 77 1010.2
20260904140503 29 32 0.0 6.4 0.00 0.00 0.00 77 1010.3
20260904135740 29 27 0.0 6.4 0.00 0.00 0.00 77 1010.3
20260904135239 29 197 0.0 4.8 0.00 0.00 0.00 77 1010.2
20260904134737 28 161 0.0 3.2 0.00 0.00 0.00 78 1010.1
20260904134242 28 212 0.0 4.8 0.00 0.00 0.00 78 1010.1
20260904133946 28 99 0.0 4.8 0.00 0.00 0.00 79 1010.1
20260904133220 28 223 0.0 3.2 0.00 0.00 0.00 80 1010.0
20260904132714 28 218 1.6 6.4 0.00 0.00 0.00 80 1009.8
20260904132208 28 210 0.0 6.4 0.00 0.00 0.00 80 1010.0
20260904131702 27 146 0.0 3.2 0.00 0.00 0.00 81 1010.0
20260904131156 27 70 0.0 1.6 0.00 0.00 0.00 82 1010.1
20260904130650 27 193 0.0 1.6 0.00 0.00 0.00 82 1010.0
20260904130623 27 64 0.0 1.6 0.00 0.00 0.00 82 1010.1
20260904125638 27 138 0.0 1.6 0.00 0.00 0.00 82 1010.1
20260904125131 27 217 0.0 3.2 0.00 0.00 0.00 83 1010.2
20260904124849 27 217 0.0 6.4 0.00 0.00 0.00 83 1010.2
20260904124349 27 206 0.0 8.0 0.00 0.00 0.00 83 1010.3
20260904123614 26 25 0.0 8.0 0.00 0.00 0.00 84 1010.2
20260904123108 26 200 0.0 3.2 0.00 0.00 0.00 84 1010.1
20260904122832 26 52 0.0 6.4 0.00 0.00 0.00 85 1010.1
20260904122055 26 60 0.0 6.4 0.00 0.00 0.00 85 1010.1
20260904121549 26 11 1.6 4.8 0.00 0.00 0.00 86 1010.2
20260904121044 25 89 1.6 8.0 0.00 0.00 0.00 88 1010.3
20260904121028 25 273 0.0 8.0 0.00 0.00 0.00 90 1010.2
20260904120032 24 208 0.0 4.8 0.00 0.00 0.00 92 1010.2
20260904115526 24 190 0.0 1.6 0.00 0.00 0.00 93 1010.1
20260904115020 23 155 0.0 1.6 0.00 0.00 0.00 94 1009.9
20260904114742 23 43 0.0 0.0 0.00 0.00 0.00 94 1009.9
20260904114225 23 43 0.0 0.0 0.00 0.00 0.00 93 1010.0
20260904113502 23 44 0.0 0.0 0.00 0.00 0.00 93 1010.1
20260904112956 23 44 0.0 0.0 0.00 0.00 0.00 93 1010.0
20260904112450 23 43 0.0 0.0 0.00 0.00 0.00 93 1010.1
20260904111944 23 43 0.0 0.0 0.00 0.00 0.00 92 1010.1
20260904111437 23 43 0.0 0.0 0.00 0.00 0.00 92 1010.1
20260904110932 23 43 0.0 0.0 0.00 0.00 0.00 92 1010.1
20260904110425 23 43 0.0 0.0 0.00 0.00 0.00 92 1010.0
20260904105919 23 43 0.0 0.0 0.00 0.00 0.00 92 1010.0
20260904105412 23 44 0.0 0.0 0.00 0.00 0.00 91 1010.0
20260904104906 23 43 0.0 0.0 0.00 0.00 0.00 91 1010.0
20260904104400 23 43 0.0 0.0 0.00 0.00 0.00 91 1010.0
20260904103854 23 43 0.0 0.0 0.00 0.00 0.00 91 1010.0
20260904103348 23 44 0.0 0.0 0.00 0.00 0.00 91 1009.9
20260904102842 23 43 0.0 0.0 0.00 0.00 0.00 91 1009.9
20260904102335 23 43 0.0 0.0 0.00 0.00 0.00 90 1009.9
20260904101830 23 43 0.0 0.0 0.00 0.00 0.00 90 1010.0
20260904101549 23 44 0.0 0.0 0.00 0.00 0.00 90 1009.9
20260904100818 23 43 0.0 0.0 0.00 0.00 0.00 90 1009.9
20260904100312 23 43 0.0 0.0 0.00 0.00 0.00 90 1010.0
20260904095806 23 43 0.0 0.0 0.00 0.00 0.00 89 1010.0
20260904095259 23 43 0.0 0.0 0.00 0.00 0.00 89 1010.0
20260904094754 23 43 0.0 0.0 0.00 0.00 0.00 89 1010.0
20260904094248 24 43 0.0 0.0 0.00 0.00 0.00 89 1010.0
20260904093742 24 43 0.0 0.0 0.00 0.00 0.00 89 1010.0
20260904093236 24 43 0.0 0.0 0.00 0.00 0.00 88 1010.0
20260904092730 24 43 0.0 0.0 0.00 0.00 0.00 88 1010.1
20260904092224 24 43 0.0 0.0 0.00 0.00 0.00 88 1010.1
20260904091941 24 43 0.0 0.0 0.00 0.00 0.00 87 1010.2
20260904091211 24 43 0.0 0.0 0.00 0.00 0.00 87 1010.2
20260904090705 24 43 0.0 0.0 0.00 0.00 0.00 87 1010.3
20260904090426 24 43 0.0 0.0 0.00 0.00 0.00 87 1010.2
20260904085653 25 43 0.0 0.0 0.00 0.00 0.00 86 1010.3
20260904085148 25 43 0.0 0.0 0.00 0.00 0.00 86 1010.3
20260904084642 25 43 0.0 0.0 0.00 0.00 0.00 86 1010.3
20260904084356 25 43 0.0 0.0 0.00 0.00 0.00 85 1010.3
20260904083630 25 43 0.0 0.0 0.00 0.00 0.00 85 1010.2
20260904083123 25 43 0.0 0.0 0.00 0.00 0.00 85 1010.1
20260904082618 25 43 0.0 0.0 0.00 0.00 0.00 85 1010.1
20260904082112 25 43 0.0 0.0 0.00 0.00 0.00 85 1010.1
20260904081605 25 43 0.0 0.0 0.00 0.00 0.00 85 1010.1
20260904081059 25 43 0.0 0.0 0.00 0.00 0.00 84 1010.0
20260904080603 25 43 0.0 0.0 0.00 0.00 0.00 84 1009.9
20260904080048 25 43 0.0 0.0 0.00 0.00 0.00 83 1010.0
20260904075542 25 43 0.0 0.0 0.00 0.00 0.00 82 1010.0
20260904075036 25 43 0.0 0.0 0.00 0.00 0.00 82 1009.9
20260904074530 25 43 0.0 0.0 0.00 0.00 0.00 82 1010.0
20260904074024 26 43 0.0 0.0 0.00 0.00 0.00 82 1009.9
20260904073518 26 43 0.0 1.6 0.00 0.00 0.00 82 1009.8
20260904073012 26 43 0.0 1.6 0.00 0.00 0.00 82 1009.8
20260904072506 26 44 0.0 0.0 0.00 0.00 0.00 81 1009.6
20260904072000 26 43 0.0 0.0 0.00 0.00 0.00 81 1009.5
20260904071714 26 43 0.0 1.6 0.00 0.00 0.00 81 1009.7
20260904071432 26 43 0.0 1.6 0.00 0.00 0.00 81 1009.6
20260904070442 26 43 0.0 0.0 0.00 0.00 0.00 80 1009.6
20260904070203 26 43 0.0 0.0 0.00 0.00 0.00 80 1009.5
20260904065430 26 43 0.0 0.0 0.00 0.00 0.00 79 1009.7
20260904064924 26 43 0.0 0.0 0.00 0.00 0.00 80 1009.8
20260904064418 27 43 0.0 0.0 0.00 0.00 0.00 79 1009.8
20260904063912 27 43 0.0 1.6 0.00 0.00 0.00 79 1009.8
20260904063414 27 43 0.0 1.6 0.00 0.00 0.00 78 1009.8
20260904063138 27 43 0.0 1.6 0.00 0.00 0.00 78 1010.0
20260904062411 27 43 0.0 1.6 0.00 0.00 0.00 78 1010.0
20260904062132 27 43 0.0 6.4 0.00 0.00 0.00 79 1010.2
20260904061409 28 43 0.0 6.4 0.00 0.00 0.00 79 1010.5
20260904060910 28 30 0.0 3.2 0.00 0.00 0.00 80 1010.6
20260904060410 28 34 1.6 3.2 0.00 0.00 0.00 79 1010.7
20260904055908 28 35 1.6 4.8 0.00 0.00 0.00 79 1010.8
20260904055409 28 33 3.2 9.7 0.00 0.00 0.00 79 1010.9
20260904054908 28 174 1.6 9.7 0.00 0.00 0.00 78 1010.9
20260904054408 29 29 1.6 8.0 0.00 0.00 0.00 76 1010.5
20260904054126 29 115 0.0 8.0 0.00 0.00 0.00 76 1009.8
20260904053406 29 166 1.6 9.7 0.00 0.00 0.00 76 1009.7
20260904052908 29 212 1.6 9.7 0.00 0.00 0.00 76 1009.7
20260904052403 28 22 0.0 4.8 0.00 0.00 0.00 76 1009.7
20260904051903 28 211 0.0 4.8 0.00 0.00 0.00 77 1009.7
20260904051404 28 231 0.0 4.8 0.00 0.00 0.00 78 1009.7
20260904050902 28 176 0.0 1.6 0.00 0.00 0.00 79 1009.8
20260904050404 28 175 0.0 1.6 0.00 0.00 0.00 79 1009.8
20260904045903 28 226 0.0 1.6 0.00 0.00 0.00 80 1009.9
20260904045402 28 226 0.0 1.6 0.00 0.00 0.00 80 1010.1
20260904044903 28 225 0.0 0.0 0.00 0.00 0.00 81 1010.0
20260904044404 28 225 0.0 0.0 0.00 0.00 0.00 81 1010.0
20260904043902 28 225 0.0 0.0 0.00 0.00 0.00 81 1010.1
20260904043623 28 225 0.0 0.0 0.00 0.00 0.00 81 1010.1
20260904042902 28 225 0.0 0.0 0.00 0.00 0.00 81 1010.0
20260904042404 28 225 0.0 0.0 0.00 0.00 0.00 81 1010.1
20260904042128 28 225 0.0 1.6 0.00 0.00 0.00 81 1010.1
20260904041404 28 225 0.0 1.6 0.00 0.00 0.00 81 1010.1
20260904040905 28 225 0.0 0.0 0.00 0.00 0.00 81 1010.2
20260904040406 28 225 0.0 1.6 0.00 0.00 0.00 81 1010.2
20260904035905 28 225 0.0 1.6 0.00 0.00 0.00 81 1010.1
20260904035619 27 225 0.0 0.0 0.00 0.00 0.00 82 1010.3
20260904034853 27 225 0.0 0.0 0.00 0.00 0.00 83 1010.3
20260904034346 27 226 0.0 0.0 0.00 0.00 0.00 83 1010.3
20260904033841 27 225 0.0 0.0 0.00 0.00 0.00 84 1010.2
20260904033558 27 226 0.0 0.0 0.00 0.00 0.00 84 1010.4
20260904032828 27 226 0.0 0.0 0.00 0.00 0.00 85 1010.5
20260904032323 27 226 0.0 0.0 0.00 0.00 0.00 85 1010.6
20260904032034 27 226 0.0 0.0 0.00 0.00 0.00 85 1010.4
20260904031310 27 225 0.0 0.0 0.00 0.00 0.00 85 1010.4
20260904031024 27 226 0.0 0.0 0.00 0.00 0.00 85 1010.3
20260904030258 27 226 0.0 0.0 0.00 0.00 0.00 85 1010.3
20260904025753 27 226 0.0 0.0 0.00 0.00 0.00 85 1010.3
20260904025247 27 226 0.0 0.0 0.00 0.00 0.00 85 1010.4
20260904024741 27 225 0.0 0.0 0.00 0.00 0.00 85 1010.3
20260904024235 27 226 0.0 0.0 0.00 0.00 0.00 86 1010.3
20260904023729 27 226 0.0 0.0 0.00 0.00 0.00 86 1010.3
20260904023451 27 225 0.0 0.0 0.00 0.00 0.00 87 1010.3
20260904022717 27 226 0.0 0.0 0.00 0.00 0.00 87 1010.3
20260904022211 27 226 0.0 0.0 0.00 0.00 0.00 88 1010.3
20260904022153 27 225 0.0 0.0 0.00 0.00 0.00 88 1010.2
20260904021159 27 226 0.0 0.0 0.00 0.00 0.00 87 1010.2
20260904020652 27 226 0.0 0.0 0.00 0.00 0.00 87 1010.1
20260904020146 27 226 0.0 0.0 0.00 0.00 0.00 87 1010.3
20260904015901 27 225 0.0 0.0 0.00 0.00 0.00 87 1010.4
20260904015140 27 225 0.0 0.0 0.00 0.00 0.00 87 1010.5
20260904014642 27 226 0.0 0.0 0.00 0.00 0.00 87 1010.5
20260904014638 27 225 0.0 0.0 0.00 0.00 0.00 87 1010.5
20260904013640 27 226 0.0 0.0 0.00 0.00 0.00 86 1010.6
20260904013138 28 226 0.0 0.0 0.00 0.00 0.00 85 1010.6
20260904012638 28 226 0.0 0.0 0.00 0.00 0.00 85 1010.6
20260904012140 28 226 0.0 0.0 0.00 0.00 0.00 85 1010.8
20260904011637 28 226 0.0 0.0 0.00 0.00 0.00 85 1010.8
20260904011356 28 226 0.0 0.0 0.00 0.00 0.00 84 1010.7
20260904010637 28 226 0.0 0.0 0.00 0.00 0.00 84 1010.8
20260904010358 28 226 0.0 0.0 0.00 0.00 0.00 84 1010.9
20260904005855 28 225 0.0 0.0 0.00 0.00 0.00 84 1011.0
20260904005139 28 226 0.0 0.0 0.00 0.00 0.00 84 1011.0
20260904004633 28 226 0.0 0.0 0.00 0.00 0.00 83 1011.0
20260904004401 28 226 0.0 0.0 0.00 0.00 0.00 84 1010.9
20260904003633 28 225 0.0 0.0 0.00 0.00 0.00 83 1010.9
20260904003131 28 226 0.0 0.0 0.00 0.00 0.00 82 1011.0
20260904002631 28 226 0.0 0.0 0.00 0.00 0.00 82 1010.8
20260904002131 29 226 0.0 0.0 0.00 0.00 0.00 82 1010.7
20260904001852 29 226 0.0 0.0 0.00 0.00 0.00 81 1010.6
20260904001131 29 226 0.0 0.0 0.00 0.00 0.00 81 1010.6
20260904000632 29 226 0.0 0.0 0.00 0.00 0.00 81 1010.5
20260904000120 30 226 0.0 0.0 0.00 0.00 0.00 80 1010.3
20260903235128 30 226 0.0 0.0 0.00 0.00 0.00 80 1010.2
20260903234627 30 226 0.0 0.0 0.00 0.00 0.00 79 1010.0
20260903234344 30 226 0.0 0.0 0.00 0.00 0.00 79 1010.1
20260903234227 30 225 0.0 0.0 0.00 0.00 0.00 79 1009.9
20260903233126 30 226 0.0 0.0 0.00 0.00 0.00 78 1010.1
20260903232853 30 226 0.0 0.0 0.00 0.00 0.00 78 1010.0
20260903232128 30 226 0.0 0.0 0.00 0.00 0.00 78 1010.0
20260903231622 31 225 0.0 0.0 0.00 0.00 0.00 77 1010.0
20260903231121 31 226 0.0 0.0 0.00 0.00 0.00 76 1010.0
20260903230622 31 226 0.0 0.0 0.00 0.00 0.00 76 1010.0
20260903230121 31 226 0.0 0.0 0.00 0.00 0.00 76 1009.8
20260903225838 31 226 0.0 0.0 0.00 0.00 0.00 75 1009.8
20260903225119 31 226 0.0 0.0 0.00 0.00 0.00 75 1009.9
20260903224620 31 226 0.0 0.0 0.00 0.00 0.00 74 1009.8
20260903224120 31 226 0.0 0.0 0.00 0.00 0.00 74 1009.7
20260903223618 31 226 0.0 0.0 0.00 0.00 0.00 73 1009.8
20260903223118 32 226 0.0 1.6 0.00 0.00 0.00 72 1009.9
20260903222619 32 226 0.0 1.6 0.00 0.00 0.00 71 1009.7
20260903222118 32 225 0.0 1.6 0.00 0.00 0.00 70 1009.7
20260903221622 32 225 0.0 1.6 0.00 0.00 0.00 70 1009.7
20260903221122 32 220 0.0 0.0 0.00 0.00 0.00 69 1009.8
20260903220616 33 220 0.0 0.0 0.00 0.00 0.00 68 1009.8
20260903220109 33 220 0.0 0.0 0.00 0.00 0.00 67 1009.9
20260903215827 33 220 0.0 0.0 0.00 0.00 0.00 66 1010.0
20260903215057 34 220 0.0 0.0 0.00 0.00 0.00 65 1010.0
20260903214552 34 220 0.0 1.6 0.00 0.00 0.00 64 1009.9
20260903214049 35 221 0.0 1.6 0.00 0.00 0.00 63 1010.1
20260903213549 35 221 0.0 1.6 0.00 0.00 0.00 61 1010.0
20260903213048 36 220 0.0 3.2 0.00 0.00 0.00 58 1009.9
20260903212548 36 220 0.0 3.2 0.00 0.00 0.00 55 1009.9
20260903212050 36 79 0.0 1.6 0.00 0.00 0.00 59 1009.8
20260903211548 35 59 0.0 1.6 0.00 0.00 0.00 59 1009.8
20260903211045 36 188 0.0 1.6 0.00 0.00 0.00 61 1010.0
20260903210544 36 192 0.0 0.0 0.00 0.00 0.00 60 1010.0
20260903210040 36 192 0.0 1.6 0.00 0.00 0.00 60 1010.1
20260903205541 36 192 0.0 1.6 0.00 0.00 0.00 56 1010.1
20260903205044 36 194 0.0 0.0 0.00 0.00 0.00 58 1010.2
20260903204539 36 194 0.0 1.6 0.00 0.00 0.00 56 1010.1
20260903204302 36 194 0.0 1.6 0.00 0.00 0.00 53 1010.2
20260903203539 36 217 0.0 1.6 0.00 0.00 0.00 53 1010.3
20260903203038 36 39 0.0 1.6 0.00 0.00 0.00 55 1010.2
20260903202536 36 39 0.0 1.6 0.00 0.00 0.00 56 1010.3
20260903202037 36 39 0.0 1.6 0.00 0.00 0.00 53 1010.4
20260903201756 37 39 0.0 0.0 0.00 0.00 0.00 56 1010.5
20260903201024 37 39 0.0 1.6 0.00 0.00 0.00 55 1010.5
20260903200519 36 39 0.0 1.6 0.00 0.00 0.00 55 1010.6
20260903200013 36 39 0.0 1.6 0.00 0.00 0.00 54 1010.8
20260903195506 36 34 0.0 1.6 0.00 0.00 0.00 54 1010.8
20260903195000 36 33 1.6 4.8 0.00 0.00 0.00 54 1010.8
20260903194722 37 34 1.6 4.8 0.00 0.00 0.00 52 1010.9
20260903193948 37 37 1.6 4.8 0.00 0.00 0.00 51 1011.0
20260903193442 37 33 1.6 4.8 0.00 0.00 0.00 52 1011.0
20260903192937 37 34 0.0 4.8 0.00 0.00 0.00 48 1011.1
20260903192431 37 33 0.0 1.6 0.00 0.00 0.00 52 1011.1
20260903191925 37 161 0.0 4.8 0.00 0.00 0.00 52 1011.2
20260903191419 36 136 0.0 4.8 0.00 0.00 0.00 54 1011.2
20260903190912 36 218 0.0 3.2 0.00 0.00 0.00 56 1011.3
20260903190900 35 30 0.0 3.2 0.00 0.00 0.00 57 1011.4
20260903185857 35 39 0.0 0.0 0.00 0.00 0.00 59 1011.5
20260903185613 35 46 0.0 0.0 0.00 0.00 0.00 60 1011.6
20260903184845 36 37 0.0 0.0 0.00 0.00 0.00 62 1011.7
20260903184338 36 37 0.0 0.0 0.00 0.00 0.00 61 1011.7
20260903184053 35 37 0.0 0.0 0.00 0.00 0.00 61 1011.7
20260903183520 36 31 0.0 0.0 0.00 0.00 0.00 57 1012.0
20260903183410 36 33 0.0 0.0 0.00 0.00 0.00 59 1011.8
20260903182315 36 212 0.0 0.0 0.00 0.00 0.00 60 1012.0
20260903181809 36 234 0.0 1.6 0.00 0.00 0.00 61 1012.0
20260903181522 36 231 0.0 1.6 0.00 0.00 0.00 59 1012.1
20260903180757 36 214 0.0 4.8 0.00 0.00 0.00 59 1012.2
20260903180523 35 309 1.6 4.8 0.00 0.00 0.00 60 1012.2
20260903175745 35 189 0.0 4.8 0.00 0.00 0.00 61 1012.4
20260903175239 35 220 1.6 6.4 0.00 0.00 0.00 62 1012.5
20260903174733 35 226 1.6 6.4 0.00 0.00 0.00 62 1012.6
20260903174444 34 195 0.0 1.6 0.00 0.00 0.00 65 1012.5
20260903173940 34 51 1.6 6.4 0.00 0.00 0.00 66 1012.5
20260903173214 34 33 1.6 6.4 0.00 0.00 0.00 64 1012.6
20260903172708 34 16 0.0 4.8 0.00 0.00 0.00 65 1012.6
20260903172425 34 37 0.0 3.2 0.00 0.00 0.00 64 1012.7
20260903171657 34 160 0.0 4.8 0.00 0.00 0.00 66 1012.7
20260903171151 33 27 1.6 4.8 0.00 0.00 0.00 66 1012.7
20260903170904 34 28 0.0 4.8 0.00 0.00 0.00 65 1012.7
20260903170139 34 177 0.0 1.6 0.00 0.00 0.00 66 1012.8
20260903165858 33 224 0.0 1.6 0.00 0.00 0.00 67 1012.8
20260903165127 33 212 1.6 4.8 0.00 0.00 0.00 70 1012.9
20260903164621 32 56 1.6 4.8 0.00 0.00 0.00 70 1013.1